This is the latest recevied weather packets stored in our database for station/object VK3XEM-13. If no packets are shown the sender has not sent any weather packets the latest 10 day(s).
| Time | Temp. | Humidity | Pressure | Rain* | Wind** | Luminosity | Snow |
|---|---|---|---|---|---|---|---|
| 1777958234 | 15° C | 63% | 1018.5 hPa | 0 mm | - | 126 W/m² | - |
| 1777957334 | 15° C | 63% | 1018.5 hPa | 0 mm | - | 138 W/m² | - |
| 1777956434 | 15° C | 63% | 1018.5 hPa | 0 mm | - | 130 W/m² | - |
| 1777955534 | 15° C | 62% | 1018.5 hPa | 0 mm | - | 165 W/m² | - |
| 1777954634 | 15° C | 63% | 1018.1 hPa | 0 mm | - | 180 W/m² | - |
| 1777953734 | 15° C | 62% | 1018.1 hPa | 0 mm | - | 148 W/m² | - |
| 1777952834 | 14.44° C | 63% | 1018.5 hPa | 0 mm | - | 105 W/m² | - |
| 1777951934 | 14.44° C | 63% | 1018.1 hPa | 0 mm | - | 136 W/m² | - |
| 1777951035 | 15° C | 60% | 1018.1 hPa | 0 mm | - | 158 W/m² | - |
| 1777950134 | 15° C | 59% | 1018.1 hPa | 0 mm | - | 206 W/m² | - |
| 1777949234 | 15° C | 61% | 1018.5 hPa | 0 mm | - | 203 W/m² | - |
| 1777948334 | 14.44° C | 61% | 1018.1 hPa | 0 mm | - | 276 W/m² | - |
| 1777947434 | 14.44° C | 65% | 1018.5 hPa | 0 mm | - | 211 W/m² | - |
| 1777946534 | 14.44° C | 65% | 1018.5 hPa | 0 mm | - | 144 W/m² | - |
| 1777945634 | 14.44° C | 66% | 1018.5 hPa | 0 mm | - | 189 W/m² | - |
| 1777944734 | 14.44° C | 67% | 1018.5 hPa | 0 mm | - | 216 W/m² | - |
| 1777943834 | 14.44° C | 65% | 1018.5 hPa | 0 mm | - | 199 W/m² | - |
| 1777942934 | 13.89° C | 68% | 1018.5 hPa | 0 mm | - | 203 W/m² | - |
| 1777942034 | 13.89° C | 69% | 1018.5 hPa | 0 mm | - | 172 W/m² | - |
| 1777941134 | 14.44° C | 69% | 1018.1 hPa | 0 mm | - | 121 W/m² | - |
| 1777940234 | 14.44° C | 68% | 1018.1 hPa | 0 mm | - | 196 W/m² | - |
| 1777939334 | 13.89° C | 69% | 1018.1 hPa | 0 mm | - | 305 W/m² | - |
| 1777938434 | 13.89° C | 69% | 1017.8 hPa | 0 mm | - | 266 W/m² | - |
| 1777937534 | 13.89° C | 72% | 1017.8 hPa | 0 mm | - | 171 W/m² | - |
| 1777936634 | 13.89° C | 75% | 1017.8 hPa | 0 mm | - | 360 W/m² | - |
* Rain latest hour (hover to see other rain measurements)
** Current wind speed in m/s (hover to see current wind gust speed)